CAPE
12 0 1 6 13 15 10 9 4 0 0 0 0 0 0 0 0 0 0 0 0 0 0 0 0 0 0 0 0 0 0 0 0 0 0 0 0 0 0 0 0 0 0 0 0
2 19 2 0 0 0 0 0 0 0 0 0 0 0 0 0 0 0 0 0 0 0 0 0 0 0 0 0 0 0 0 0 0 0 0 0 0 0 0 0 0 0 0 0 0
1 16 29 19 0 0 0 0 0 0 0 0 0 0 0 0 0 0 0 0 0 0 0 0 0 0 0 0 0 0 0 0 0 0 0 0 0 0 0 0 0 0 0 0 0
8 7 20 36 5 0 0 0 0 0 0 0 0 0 0 0 0 0 0 0 0 0 0 0 0 0 0 0 0 0 0 0 0 0 0 0 0 0 0 0 0 0 0 0 0
1 14 18 18 25 13 0 0 0 0 0 0 0 0 0 0 0 0 0 0 0 0 0 0 0 0 0 0 0 0 0 0 0 0 0 0 0 0 0 0 0 0 0 0 0
8 19 22 27 19 14 1 0 0 0 0 0 0 0 0 0 0 0 0 0 0 0 0 0 0 0 0 0 0 0 0 0 0 0 0 0 0 0 0 0 0 0 0 0 0
8 17 17 29 21 25 32 13 0 0 0 0 0 0 0 0 0 0 0 0 0 0 0 0 0 0 0 0 0 0 0 0 0 0 0 0 0 0 0 0 0 0 0 0 0
16 2 0 2 8 36 58 27 0 0 0 0 0 0 0 0 0 0 0 0 0 0 0 0 0 0 0 0 0 0 0 0 0 0 0 0 0 0 0 0 0 0 0 0 0
8 3 0 0 0 1 21 12 0 0 0 0 0 0 0 0 0 0 0 0 0 0 0 0 0 0 0 0 0 0 0 0 0 0 0 0 0 0 0 0 0 0 0 0 0
3 1 1 1 1 3 2 0 0 0 0 0 0 0 0 0 0 0 0 0 0 0 0 0 0 0 0 0 0 0 0 0 0 0 0 0 0 0 0 0 0 0 0 0 0
2 1 1 1 2 3 0 0 0 0 0 0 0 0 0 0 0 0 0 0 0 0 0 0 0 0 0 0 0 0 0 0 0 0 0 0 0 0 0 0 0 0 0 0 0
0 1 1 1 1 0 0 0 0 0 0 0 0 0 0 0 0 0 0 0 0 0 0 0 0 0 0 0 0 0 0 0 0 0 0 0 0 0 0 0 0 0 0 0 0
5 0 2 1 0 0 0 0 0 0 0 0 0 0 0 0 0 0 0 0 0 0 0 0 0 0 0 0 0 0 0 0 0 0 0 0 0 0 0 0 0 0 0 0 0
2 0 0 1 0 0 0 0 0 0 0 0 0 0 0 0 0 0 0 0 0 0 0 0 0 0 0 0 0 0 0 0 0 0 0 0 0 0 0 0 0 0 0 0 0
0 0 0 0 0 0 0 0 0 0 0 0 0 0 0 0 0 0 0 0 0 0 0 0 0 0 0 0 0 0 0 0 0 0 0 0 0 0 0 0 0 0 0 0 0
0 0 0 0 0 0 0 0 0 0 0 0 0 0 0 0 0 0 0 0 0 0 0 0 0 0 0 0 0 0 0 0 0 0 0 0 0 0 0 0 0 0 0 0 0
0 0 0 0 0 0 0 0 0 0 0 0 0 0 0 0 0 0 0 0 0 0 0 0 0 0 0 0 0 0 0 0 0 0 0 0 0 0 0 0 0 0 0 0 0
0 0 0 0 0 0 0 0 0 0 0 0 0 0 0 0 0 0 0 0 0 0 0 0 0 0 0 0 0 0 0 0 0 0 0 0 0 0 0 0 0 0 0 0 0
0 0 0 0 0 0 0 0 0 0 0 0 0 0 0 0 0 0 0 0 0 0 0 0 0 0 0 0 0 0 0 0 0 0 0 0 0 0 0 0 0 0 0 0 0
0 0 0 0 0 0 0 0 0 0 0 0 0 0 0 0 0 0 0 0 0 0 0 0 0 0 0 0 0 0 0 0 0 0 0 0 0 0 0 0 0 0 0 0 0
0 0 0 0 0 0 0 0 0 0 0 0 0 0 0 0 0 0 0 0 0 0 0 0 0 0 0 0 0 0 0 0 0 0 0 0 0 0 0 0 0 0 0 0 0
0 0 0 0 0 0 0 0 0 0 0 0 0 0 0 0 0 0 0 0 0 0 0 0 0 0 0 0 0 0 0 0 0 0 0 0 0 0 0 0 0 0 0 0 0
0 0 0 0 0 0 0 0 0 0 0 0 0 0 0 0 0 0 0 0 0 0 0 0 0 0 0 0 0 0 0 0 0 0 0 0 0 0 0 0 0 0 0 0 0
0 0 0 0 0 0 0 0 0 0 0 0 0 0 0 0 0 0 0 0 0 0 0 0 0 0 0 0 0 0 0 0 0 0 0 0 0 0 0 0 0 0 0 0 0
0 0 0 0 0 0 0 0 0 0 0 0 0 0 0 0 0 0 0 0 0 0 0 0 0 0 0 0 0 0 0 0 0 0 0 0 0 0 0 0 0 0 0 0 0
0 0 0 0 0 0 0 0 0 0 0 0 0 0 0 0 0 0 0 0 0 0 0 0 0 0 0 0 0 0 0 0 0 0 0 0 0 0 0 0 0 0 0 0 0
0 0 0 0 0 0 0 0 0 0 0 0 0 0 0 0 0 0 0 0 0 0 0 0 0 0 0 0 0 0 0 0 0 0 0 0 0 0 0 0 0 0 0 0 0
CIN
-0 -0 -0 -0 -1 -1 -0 -0 -0 -0 -0 -0 -0 -0 -0 -0 -0 -0 -0 -0 -0 -0 -0 -0 -0 -0 -0 -0 -0 -0 -0 -0 -0 -0 -0 -0 -0 -0 -0 -0 -0 -0 -0 -0 -0
-0 -0 -0 -0 -0 -0 -0 -0 -0 -0 -0 -0 -0 -0 -0 -0 -0 -0 -0 -0 -0 -0 -0 -0 -0 -0 -0 -0 -0 -0 -0 -0 -0 -0 -0 -0 -0 -0 -0 -0 -0 -0 -0 -0 -0
-0 -0 -0 -0 -0 -0 -0 -0 -0 -0 -0 -0 -0 -0 -0 -0 -0 -0 -0 -0 -0 -0 -0 -0 -0 -0 -0 -0 -0 -0 -0 -0 -0 -0 -0 -0 -0 -0 -0 -0 -0 -0 -0 -0 -0
-0 -0 -0 -0 -3 -0 -0 -0 -0 -0 -0 -0 -0 -0 -0 -0 -0 -0 -0 -0 -0 -0 -0 -0 -0 -0 -0 -0 -0 -0 -0 -0 -0 -0 -0 -0 -0 -0 -0 -0 -0 -0 -0 -0 -0
-0 -2 -2 -3 -2 -6 -0 -0 -0 -0 -0 -0 -0 -0 -0 -0 -0 -0 -0 -0 -0 -0 -0 -0 -0 -0 -0 -0 -0 -0 -0 -0 -0 -0 -0 -0 -0 -0 -0 -0 -0 -0 -0 -0 -0
-1 -2 -2 -2 -13 -28 -7 -0 -0 -0 -0 -0 -0 -0 -0 -0 -0 -0 -0 -0 -0 -0 -0 -0 -0 -0 -0 -0 -0 -0 -0 -0 -0 -0 -0 -0 -0 -0 -0 -0 -0 -0 -0 -0 -0
-3 -0 -0 -0 -12 -114 -140 -180 -0 -0 -0 -0 -0 -0 -0 -0 -0 -0 -0 -0 -0 -0 -0 -0 -0 -0 -0 -0 -0 -0 -0 -0 -0 -0 -0 -0 -0 -0 -0 -0 -0 -0 -0 -0 -0
-3 -1 -0 -16 -118 -100 -141 -185 -0 -0 -0 -0 -0 -0 -0 -0 -0 -0 -0 -0 -0 -0 -0 -0 -0 -0 -0 -0 -0 -0 -0 -0 -0 -0 -0 -0 -0 -0 -0 -0 -0 -0 -0 -0 -0
-1 -0 -0 -0 -0 -0 -191 -229 -0 -0 -0 -0 -0 -0 -0 -0 -0 -0 -0 -0 -0 -0 -0 -0 -0 -0 -0 -0 -0 -0 -0 -0 -0 -0 -0 -0 -0 -0 -0 -0 -0 -0 -0 -0 -0
-0 -0 -0 -0 -0 -0 -0 -0 -0 -0 -0 -0 -0 -0 -0 -0 -0 -0 -0 -0 -0 -0 -0 -0 -0 -0 -0 -0 -0 -0 -0 -0 -0 -0 -0 -0 -0 -0 -0 -0 -0 -0 -0 -0 -0
-0 -0 -0 -0 -0 -1 -0 -0 -0 -0 -0 -0 -0 -0 -0 -0 -0 -0 -0 -0 -0 -0 -0 -0 -0 -0 -0 -0 -0 -0 -0 -0 -0 -0 -0 -0 -0 -0 -0 -0 -0 -0 -0 -0 -0
-0 -0 -0 -0 -0 -0 -0 -0 -0 -0 -0 -0 -0 -0 -0 -0 -0 -0 -0 -0 -0 -0 -0 -0 -0 -0 -0 -0 -0 -0 -0 -0 -0 -0 -0 -0 -0 -0 -0 -0 -0 -0 -0 -0 -0
-0 -0 -0 -0 -0 -0 -0 -0 -0 -0 -0 -0 -0 -0 -0 -0 -0 -0 -0 -0 -0 -0 -0 -0 -0 -0 -0 -0 -0 -0 -0 -0 -0 -0 -0 -0 -0 -0 -0 -0 -0 -0 -0 -0 -0
-0 -0 -0 -0 -0 -0 -0 -0 -0 -0 -0 -0 -0 -0 -0 -0 -0 -0 -0 -0 -0 -0 -0 -0 -0 -0 -0 -0 -0 -0 -0 -0 -0 -0 -0 -0 -0 -0 -0 -0 -0 -0 -0 -0 -0
-0 -0 -0 -0 -0 -0 -0 -0 -0 -0 -0 -0 -0 -0 -0 -0 -0 -0 -0 -0 -0 -0 -0 -0 -0 -0 -0 -0 -0 -0 -0 -0 -0 -0 -0 -0 -0 -0 -0 -0 -0 -0 -0 -0 -0
-0 -0 -0 -0 -0 -0 -0 -0 -0 -0 -0 -0 -0 -0 -0 -0 -0 -0 -0 -0 -0 -0 -0 -0 -0 -0 -0 -0 -0 -0 -0 -0 -0 -0 -0 -0 -0 -0 -0 -0 -0 -0 -0 -0 -0
-0 -0 -0 -0 -0 -0 -0 -0 -0 -5 -0 -0 -0 -0 -0 -0 -0 -0 -0 -0 -0 -0 -0 -0 -0 -0 -0 -0 -0 -0 -0 -0 -0 -0 -0 -0 -0 -0 -0 -0 -0 -0 -0 -0 -0
-0 -0 -0 -0 -0 -0 -0 -0 -0 -0 -0 -0 -0 -0 -0 -0 -0 -0 -0 -0 -0 -0 -0 -0 -0 -0 -0 -0 -0 -0 -0 -0 -0 -0 -0 -0 -0 -0 -0 -0 -0 -0 -0 -0 -0
-0 -0 -0 -0 -0 -0 -0 -0 -0 -0 -0 -0 -0 -0 -0 -0 -0 -0 -0 -0 -0 -0 -0 -0 -0 -0 -0 -0 -0 -0 -0 -0 -0 -0 -0 -0 -0 -0 -0 -0 -0 -0 -0 -0 -0
-0 -0 -0 -0 -0 -0 -0 -0 -0 -0 -0 -0 -0 -0 -0 -0 -0 -0 -0 -0 -0 -0 -0 -0 -0 -0 -0 -0 -0 -0 -0 -0 -0 -0 -0 -0 -0 -0 -0 -0 -0 -0 -0 -0 -0
-0 -0 -0 -0 -0 -0 -0 -0 -0 -0 -0 -0 -0 -0 -0 -0 -0 -0 -0 -0 -0 -0 -0 -0 -0 -0 -0 -0 -0 -0 -0 -0 -0 -0 -0 -0 -0 -0 -0 -0 -0 -0 -0 -0 -0
-0 -0 -0 -0 -0 -0 -0 -0 -0 -0 -0 -0 -0 -0 -0 -0 -0 -0 -0 -0 -0 -0 -0 -0 -0 -0 -0 -0 -0 -0 -0 -0 -0 -0 -0 -0 -0 -0 -0 -0 -0 -0 -0 -0 -0
-0 -0 -0 -0 -0 -0 -0 -0 -0 -0 -0 -0 -0 -0 -0 -0 -0 -0 -0 -0 -0 -0 -0 -0 -0 -0 -0 -0 -0 -0 -0 -0 -0 -0 -0 -0 -0 -0 -0 -0 -0 -0 -0 -0 -0
-0 -0 -0 -0 -0 -0 -0 -0 -0 -0 -0 -0 -0 -0 -0 -0 -0 -0 -0 -0 -0 -0 -0 -0 -0 -0 -0 -0 -0 -0 -0 -0 -0 -0 -0 -0 -0 -0 -0 -0 -0 -0 -0 -0 -0
-0 -0 -0 -0 -0 -0 -0 -0 -0 -0 -0 -0 -0 -0 -0 -0 -0 -0 -0 -0 -0 -0 -0 -0 -0 -0 -0 -0 -0 -0 -0 -0 -0 -0 -0 -0 -0 -0 -0 -0 -0 -0 -0 -0 -0
-0 -0 -0 -0 -0 -0 -0 -0 -0 -0 -0 -0 -0 -0 -0 -0 -0 -0 -0 -0 -0 -0 -0 -0 -0 -0 -0 -0 -0 -0 -0 -0 -0 -0 -0 -0 -0 -0 -0 -0 -0 -0 -0 -0 -0
-0 -0 -0 -0 -0 -0 -0 -0 -0 -0 -0 -0 -0 -0 -0 -0 -0 -0 -0 -0 -0 -0 -0 -0 -0 -0 -0 -0 -0 -0 -0 -0 -0 -0 -0 -0 -0 -0 -0 -0 -0 -0 -0 -0 -0
Wind_Speed
25 24 25 27 29 27 27 28 28 29 31 32 31 31 30 31 32 27 28 24 21 23 22 22 16 16 14 12 12 12 15 13 12 10 15 11 14 17 17 16 18 18 18 14 11
26 25 25 26 26 25 25 26 28 29 30 31 31 30 29 29 30 33 28 23 22 22 20 19 18 16 13 12 13 15 17 16 15 14 16 13 16 15 18 18 20 18 17 11 10
25 25 23 23 24 24 25 26 26 28 29 30 30 29 27 26 27 29 23 21 20 20 19 20 21 18 15 14 13 14 18 13 15 17 15 15 18 17 17 19 15 12 9 9 9
24 24 22 21 22 23 24 26 27 28 28 28 28 27 27 22 29 22 17 17 19 19 19 20 20 18 17 16 14 17 16 14 16 17 17 17 16 19 16 20 18 8 7 8 8
22 21 19 19 20 22 24 25 27 27 28 27 27 25 22 26 27 20 18 17 18 18 19 20 20 18 16 18 17 17 15 16 15 16 18 16 19 20 18 17 12 8 8 7 7
17 17 17 19 21 23 24 25 27 27 27 26 25 24 23 30 21 19 19 18 18 20 19 17 19 17 17 18 19 17 16 15 17 18 19 21 21 21 18 12 10 7 7 7 6
12 13 17 19 21 25 26 27 27 27 26 25 24 22 26 29 19 20 19 19 18 19 20 18 18 19 15 17 17 17 20 19 19 19 21 19 25 22 14 8 8 8 8 8 6
7 9 14 21 25 26 27 27 27 26 25 24 22 21 27 23 22 21 18 18 16 17 17 18 18 16 17 12 18 20 22 26 21 20 21 20 27 22 11 7 8 8 9 8 7
6 7 14 26 26 26 26 26 26 24 23 24 21 22 26 21 20 18 17 17 15 16 16 16 17 18 18 21 22 22 27 27 28 20 21 19 25 21 13 10 10 9 9 8 7
9 12 15 23 24 24 24 24 23 21 20 21 21 22 24 22 18 16 16 14 16 14 16 17 17 18 17 16 26 25 26 27 28 23 21 24 26 22 19 13 12 11 9 8 7
12 15 18 20 22 21 19 17 18 20 24 23 22 20 20 18 15 15 16 15 16 16 19 17 19 22 19 19 23 21 23 26 25 23 25 27 28 29 23 18 16 14 11 8 7
15 17 19 20 20 19 19 20 20 17 22 27 25 22 22 17 15 15 16 17 18 20 15 17 24 23 19 17 21 24 26 27 26 23 24 29 33 33 27 23 16 13 11 10 8
17 19 20 21 20 21 23 23 19 16 19 18 19 18 18 16 15 16 17 17 19 19 18 18 19 15 17 17 19 20 23 25 27 27 25 32 33 27 25 25 23 18 14 11 8
20 22 22 22 21 21 22 18 17 17 18 21 18 17 16 14 16 15 15 16 17 18 16 18 17 16 17 19 19 24 22 22 24 28 29 27 36 32 27 27 25 22 14 8 5
22 23 24 24 20 22 19 15 16 16 19 22 18 16 16 15 16 16 15 17 18 16 17 18 17 18 19 20 19 21 19 22 24 26 30 28 29 27 26 23 26 23 16 10 2
23 24 24 21 21 20 16 16 17 16 18 19 18 17 17 16 16 17 17 15 16 16 16 17 16 17 17 16 17 14 20 23 24 26 30 26 23 25 24 23 24 24 19 13 7
24 24 24 20 19 16 15 17 16 15 17 19 19 19 20 21 17 17 18 19 19 20 21 19 19 18 17 18 18 19 22 28 28 27 27 23 23 23 23 23 24 25 20 14 11
25 24 21 23 19 18 17 17 15 16 18 16 17 15 19 21 19 17 17 19 17 17 17 19 21 18 19 19 19 18 19 22 30 29 28 22 25 21 22 23 23 21 18 15 15
14 21 21 18 17 18 19 19 15 16 16 15 16 20 19 18 17 17 18 18 18 18 18 17 19 17 17 16 16 17 19 17 23 25 29 25 22 20 21 21 21 21 20 20 21
24 22 21 18 17 17 20 18 16 15 15 16 16 17 19 19 17 17 17 17 17 16 16 16 19 18 17 15 18 17 13 21 21 27 29 24 23 22 21 20 22 23 24 25 24
21 24 20 18 17 18 24 20 17 15 14 15 15 15 16 17 17 17 17 17 16 15 15 15 17 18 16 17 16 17 19 19 18 21 27 30 25 19 19 21 24 25 25 26 27
21 24 19 17 22 20 22 21 17 17 15 16 15 16 17 17 17 18 18 17 15 15 15 15 16 19 18 16 16 17 17 16 21 23 22 25 28 19 20 22 24 25 25 25 26
20 21 19 19 26 25 22 21 19 20 19 18 18 18 18 17 18 16 16 16 16 15 14 13 17 20 20 18 17 18 17 17 18 21 23 27 28 20 21 25 25 24 26 26 27
18 22 20 19 20 21 22 22 21 19 20 19 19 18 16 16 17 13 14 15 16 15 15 14 16 17 21 20 19 20 19 17 19 25 27 27 30 26 28 26 25 25 24 25 28
18 22 19 22 26 21 19 18 20 21 19 18 17 17 15 14 15 15 14 14 14 15 15 16 19 19 20 20 22 22 23 22 24 25 29 32 31 29 25 22 22 24 25 28 31
20 18 18 19 19 14 18 18 15 16 16 16 14 12 13 14 14 13 12 13 15 14 16 17 20 21 23 23 26 28 26 25 25 25 26 29 30 22 19 20 24 26 28 30 32
21 19 19 19 16 11 15 10 10 9 14 14 12 11 12 13 13 13 13 13 13 15 16 19 20 24 27 27 29 32 26 21 21 19 22 28 25 19 21 24 28 29 30 34 35
Wind_Direction
319 316 311 307 304 299 295 289 285 283 279 277 277 276 276 274 273 268 259 260 262 268 277 272 278 286 291 304 314 319 301 302 306 315 315 329 327 327 331 339 335 331 337 352 28
319 315 310 307 305 302 296 291 286 282 279 275 273 274 275 276 267 256 255 260 261 265 272 273 271 280 286 296 308 304 296 299 303 305 311 321 318 330 325 328 328 335 339 9 25
320 315 311 307 304 301 297 293 290 285 278 273 271 271 272 274 261 254 258 254 258 264 265 273 273 274 276 289 298 303 294 314 305 303 313 316 314 327 332 327 339 347 3 11 21
324 317 310 307 302 300 296 292 289 283 279 272 268 267 268 262 244 260 254 252 257 262 261 265 269 268 270 276 294 292 305 311 301 307 312 317 330 325 332 330 335 7 18 12 27
329 323 313 309 306 301 295 291 286 281 274 270 264 263 260 246 246 263 253 254 257 258 257 258 265 265 269 277 284 291 300 308 317 319 316 331 324 325 329 334 349 10 12 23 19
332 330 322 311 303 297 290 285 281 276 269 262 257 257 248 238 252 261 253 253 253 254 255 260 266 272 275 280 281 295 300 310 314 315 317 319 324 325 329 342 348 1 4 6 12
344 330 319 312 303 287 275 273 273 271 263 255 251 248 241 236 254 258 253 252 252 256 254 259 272 270 283 276 289 296 294 304 310 315 318 326 315 321 336 347 344 342 346 349 355
7 341 326 300 281 270 264 267 267 263 254 249 245 240 234 242 250 253 252 251 254 260 264 262 273 273 278 294 293 288 294 291 307 315 319 323 311 323 342 342 328 329 333 336 337
70 155 187 257 266 259 259 260 258 252 244 238 235 232 231 245 241 249 250 248 252 258 265 268 271 273 281 271 277 287 285 291 297 313 315 316 313 324 337 328 319 315 317 321 328
137 152 171 216 246 250 251 247 242 242 232 225 230 228 234 230 239 247 251 249 251 254 260 264 267 267 275 269 268 281 290 293 295 309 313 310 309 318 325 319 310 305 304 304 310
138 157 182 201 216 228 233 228 220 215 214 211 218 234 228 229 242 249 249 247 252 252 250 259 258 257 268 276 280 294 298 297 302 311 309 309 310 311 317 313 306 298 289 286 291
139 157 176 194 204 208 203 200 201 208 209 217 220 231 224 231 239 248 247 242 245 245 257 261 259 270 284 287 288 290 292 296 303 311 312 311 308 310 315 314 308 294 283 275 286
150 155 168 176 186 187 187 189 205 228 208 209 215 222 222 235 243 243 244 248 247 248 254 264 275 283 284 288 293 298 299 302 304 310 315 312 310 322 327 323 322 318 307 286 260
154 154 164 170 174 182 183 197 214 209 205 206 218 227 232 237 241 249 250 249 252 252 260 272 280 286 290 291 297 294 305 308 309 309 309 321 306 317 326 326 329 326 324 306 252
159 160 165 170 179 177 191 220 217 215 203 211 220 233 233 240 236 245 257 255 252 260 266 272 281 284 290 296 302 303 314 313 314 312 311 316 313 321 329 332 334 338 344 343 307
166 166 167 181 184 192 222 221 210 217 212 216 225 228 227 239 244 242 250 264 263 269 280 282 293 298 301 310 314 322 315 316 316 314 308 318 318 322 330 332 334 338 341 349 359
169 170 165 193 191 218 233 211 217 222 218 217 223 227 222 231 240 247 250 256 262 265 270 283 288 299 307 307 314 315 313 306 307 311 310 325 322 321 332 334 334 333 338 349 353
183 179 196 200 219 230 219 212 220 216 218 228 229 232 231 226 240 252 258 259 271 277 283 282 286 299 306 306 309 314 315 309 304 307 312 326 317 328 336 338 341 346 350 353 348
251 224 207 221 226 215 213 210 216 213 223 229 229 224 231 239 248 255 263 267 274 282 285 294 295 310 318 321 320 319 314 326 315 317 312 317 324 332 338 343 349 352 353 346 342
205 216 218 236 229 224 211 212 215 226 226 222 222 231 230 237 251 257 265 276 283 294 300 304 301 311 315 324 324 321 335 319 321 311 311 320 322 323 331 337 340 341 343 343 342
223 206 233 247 242 223 196 203 213 227 235 241 244 243 248 251 259 266 278 287 295 305 313 315 311 315 321 318 318 320 318 321 325 320 313 313 319 334 333 334 333 338 341 342 342
226 213 247 258 221 229 216 222 240 240 258 259 265 261 263 269 275 279 284 297 313 319 317 321 324 314 319 329 328 326 323 323 316 317 320 319 316 333 335 336 336 336 339 341 342
239 234 248 248 221 222 235 238 250 250 262 268 273 278 284 288 288 299 306 311 313 322 330 333 322 316 320 326 326 323 324 324 324 323 315 315 318 329 332 334 337 336 336 337 339
254 232 246 254 250 247 245 247 256 271 277 283 287 290 301 303 302 322 324 319 321 327 332 333 326 321 316 323 329 324 325 326 321 315 315 312 315 323 323 326 331 335 339 340 340
259 245 253 238 238 257 264 276 274 276 289 294 297 298 305 314 312 315 320 329 332 334 335 331 321 323 321 324 323 320 318 318 314 314 311 316 316 321 327 332 337 338 337 337 336
254 264 266 270 271 281 275 282 297 299 301 302 311 326 322 323 324 328 336 330 329 335 332 330 323 325 321 323 321 316 317 316 315 316 314 316 318 328 338 339 337 336 335 334 333
255 264 265 267 281 291 284 313 331 350 319 326 336 339 335 335 350 353 350 351 347 338 332 329 326 323 317 324 322 316 324 323 325 329 326 321 329 338 336 335 333 335 334 332 330